W3JBS-2 Weather Reports


time (UTC)temp
C
wind
direction
speed
KPH
gust
KPH
rain 1hr
cm
rain 24hr
cm
rain mn
cm
humidity
%
barometer
mb
20260506230703 19 218 1.6 8.0 0.00 0.30 0.30 76 1006.9
20260506225202 19 219 1.6 12.9 0.00 0.30 0.30 76 1007.2
20260506223702 19 218 1.6 11.3 0.00 0.30 0.30 76 1006.8
20260506222202 19 0 0.0 16.1 0.00 0.30 0.30 75 1007.0
20260506220702 20 216 1.6 6.4 0.00 0.30 0.30 76 1006.7
20260506215202 19 0 0.0 12.9 0.00 0.30 0.30 76 1006.9
20260506213703 19 218 3.2 11.3 0.00 0.30 0.30 76 1006.6
20260506212202 19 228 4.8 16.1 0.00 0.30 0.30 77 1006.7
20260506210702 19 233 1.6 17.7 0.00 0.30 0.30 77 1006.5
20260506205202 19 202 11.3 19.3 0.00 0.30 0.30 77 1006.5
20260506203702 19 215 8.0 19.3 0.00 0.30 0.30 77 1006.5
20260506202202 18 210 1.6 9.7 0.00 0.30 0.30 80 1006.4
20260506200702 18 254 8.0 24.1 0.03 0.30 0.30 79 1006.5
20260506195202 17 214 9.7 32.2 0.03 0.30 0.30 80 1006.6
20260506193702 17 216 3.2 20.9 0.03 0.30 0.30 81 1006.8
20260506192202 17 213 8.0 22.5 0.03 0.30 0.30 81 1006.9
20260506190702 17 220 3.2 16.1 0.00 0.28 0.28 82 1007.0
20260506185202 17 210 4.8 20.9 0.00 0.28 0.28 82 1007.2
20260506183702 17 203 4.8 19.3 0.00 0.28 0.28 82 1007.1
20260506182202 16 196 8.0 25.7 0.00 0.28 0.28 83 1007.4
20260506180702 16 192 9.7 19.3 0.00 0.28 0.28 84 1007.5
20260506175202 16 198 6.4 24.1 0.00 0.28 0.28 84 1007.6
20260506173702 16 203 6.4 17.7 0.00 0.28 0.28 84 1007.7
20260506172202 16 197 4.8 24.1 0.00 0.28 0.28 84 1007.6
20260506170702 16 181 4.8 17.7 0.03 0.28 0.28 84 1007.8
20260506165202 16 170 4.8 22.5 0.08 0.28 0.28 85 1007.8
20260506163702 16 180 4.8 20.9 0.13 0.28 0.28 85 1007.8
20260506162202 16 159 6.4 22.5 0.15 0.28 0.28 85 1008.0
20260506160702 16 189 6.4 17.7 0.18 0.25 0.25 84 1008.3
20260506155202 16 211 3.2 9.7 0.15 0.20 0.20 84 1008.8
20260506153702 16 0 0.0 9.7 0.13 0.15 0.15 82 1009.1
20260506152202 16 215 4.8 12.9 0.13 0.13 0.13 81 1009.1
20260506150702 17 217 4.8 11.3 0.08 0.08 0.08 79 1008.8
20260506145202 17 0 0.0 16.1 0.05 0.05 0.05 78 1008.9
20260506143702 17 198 6.4 20.9 0.03 0.03 0.03 76 1008.9
20260506142202 17 229 3.2 25.7 0.00 0.00 0.00 72 1008.9
20260506140701 18 215 6.4 32.2 0.00 0.00 0.00 70 1008.9
20260506135202 18 216 1.6 17.7 0.00 0.00 0.00 69 1008.8
20260506133701 18 191 11.3 29.0 0.00 0.00 0.00 68 1008.6
20260506132202 18 0 0.0 16.1 0.00 0.00 0.00 71 1008.8
20260506130701 18 161 3.2 29.0 0.00 0.00 0.00 70 1008.8
20260506125202 18 213 4.8 17.7 0.00 0.00 0.00 70 1009.0
20260506123701 18 216 6.4 25.7 0.00 0.00 0.00 69 1009.0
20260506122202 18 207 9.7 22.5 0.00 0.00 0.00 70 1008.9
20260506120701 18 199 4.8 22.5 0.00 0.00 0.00 70 1008.7
20260506115202 18 187 1.6 29.0 0.00 0.00 0.00 70 1008.7
20260506113701 18 0 0.0 20.9 0.00 0.00 0.00 71 1008.5
20260506112202 17 176 8.0 22.5 0.00 0.00 0.00 72 1008.6
20260506110701 17 187 4.8 19.3 0.00 0.00 0.00 72 1008.6
20260506105202 17 189 8.0 19.3 0.00 0.00 0.00 73 1008.5
20260506103701 17 211 6.4 17.7 0.00 0.00 0.00 73 1008.4
20260506102202 17 0 0.0 20.9 0.00 0.00 0.00 73 1008.5
20260506100701 17 170 1.6 16.1 0.00 0.00 0.00 73 1008.3
20260506095202 17 165 4.8 20.9 0.00 0.00 0.00 73 1008.3
20260506093702 17 179 3.2 11.3 0.00 0.00 0.00 72 1008.4
20260506092202 17 191 4.8 14.5 0.00 0.00 0.00 72 1008.4
20260506090702 18 199 4.8 11.3 0.00 0.00 0.00 71 1008.3
20260506085201 18 0 0.0 19.3 0.00 0.00 0.00 71 1008.4
20260506083702 18 202 4.8 11.3 0.00 0.00 0.00 70 1008.4
20260506082201 18 0 0.0 12.9 0.00 0.00 0.00 70 1008.5
20260506080702 18 185 8.0 17.7 0.00 0.00 0.00 70 1008.6
20260506072201 18 189 4.8 12.9 0.00 0.00 0.00 69 1008.7
20260506070702 18 209 3.2 14.5 0.00 0.00 0.00 69 1008.7
20260506062201 18 199 1.6 17.7 0.00 0.00 0.00 68 1009.0
20260506060701 18 177 3.2 16.1 0.00 0.00 0.00 68 1009.0
20260506050701 18 171 3.2 11.3 0.00 0.00 0.00 67 1009.5
20260506043701 18 0 0.0 11.3 0.00 0.00 0.00 66 1009.7
20260506042202 18 0 0.0 11.3 0.00 0.00 0.00 65 1009.6
20260506040701 18 172 3.2 9.7 0.00 0.00 0.00 64 1009.6
20260506035202 18 0 0.0 6.4 0.00 0.00 0.00 63 1009.6
20260506033701 19 172 8.0 14.5 0.00 0.00 0.00 62 1009.5
20260506032202 19 172 3.2 19.3 0.00 0.00 0.00 61 1009.4
20260506030701 20 170 3.2 17.7 0.00 0.00 0.00 60 1009.4
20260506025202 20 0 0.0 22.5 0.00 0.00 0.00 58 1009.4
20260506023701 20 174 6.4 17.7 0.00 0.00 0.00 56 1009.4
20260506022201 21 0 0.0 12.9 0.00 0.00 0.00 54 1009.5
20260506020701 21 161 3.2 20.9 0.00 0.00 0.00 53 1009.4
20260506015202 21 162 4.8 17.7 0.00 0.00 0.00 52 1009.3
20260506013701 21 172 1.6 9.7 0.00 0.00 0.00 50 1009.2
20260506012201 22 164 1.6 19.3 0.00 0.00 0.00 49 1009.0
20260506010701 22 167 6.4 17.7 0.00 0.00 0.00 48 1008.8
20260506005201 22 187 3.2 22.5 0.00 0.00 0.00 46 1008.8
20260506003702 23 166 6.4 17.7 0.00 0.00 0.00 45 1008.7
20260506002201 23 0 0.0 9.7 0.00 0.00 0.00 44 1008.5
20260506000701 23 201 3.2 16.1 0.00 0.00 0.00 44 1008.4
20260505233701 25 171 3.2 25.7 0.00 0.00 0.00 42 1008.0
20260505232202 25 216 12.9 30.6 0.00 0.00 0.00 40 1008.0